Overview Statistics Trail Chart Weather Telemetry Raw packets
 

This is the latest recevied weather packets stored in our database for station/object KF6RAL-6. If no packets are shown the sender has not sent any weather packets the latest 10 day(s).

<< 59 60 61 62 63 64 65 >>
Time Temp. Humidity Pressure Rain* Wind** Luminosity Snow
1788050091 22.22° C 66% 1014.2 hPa 0 mm - - -
1788049668 22.22° C 67% 1014 hPa 0 mm - - -
1788048826 22.22° C 66% 1013.5 hPa 0.25 mm - - -
1788048405 22.22° C 71% 1014.4 hPa 2.79 mm - - -
1788047565 22.22° C 71% 1014.5 hPa 2.79 mm - - -
1788047142 22.22° C 69% 1014.8 hPa 2.79 mm - - -
1788046721 22.22° C 69% 1015 hPa 2.79 mm - - -
1788046300 22.22° C 73% 1014.7 hPa 2.79 mm - - -
1788045879 21.67° C 73% 1014.6 hPa 2.79 mm - - -
1788045457 21.11° C 69% 1013.9 hPa 2.79 mm - - -
1788045037 22.22° C 64% 1014.3 hPa 0 mm - - -
1788044615 22.22° C 64% 1014.3 hPa 0 mm - - -
1788044194 22.22° C 64% 1014.3 hPa 0 mm - - -
1788043774 22.22° C 63% 1014.6 hPa 0 mm - - -
1788043352 22.78° C 63% 1014.4 hPa 0 mm - - -
1788042932 22.78° C 62% 1014 hPa 0 mm - - -
1788042520 21.67° C 64% 1014.2 hPa 0 mm - - -
1788042513 22.22° C 65% 1014.1 hPa 0 mm - - -
1788042089 21.67° C 64% 1014.2 hPa 0 mm - - -
1788041668 21.11° C 68% 1014.5 hPa 0 mm - - -
1788041259 21.11° C 69% 1014.3 hPa 0 mm - - -
1788040831 21.11° C 67% 1014.4 hPa 0 mm - - -
1788040405 22.22° C 62% 1015 hPa 0 mm - - -
1788039984 23.33° C 61% 1015.4 hPa 0.25 mm - - -
1788039565 23.33° C 62% 1015 hPa 0.51 mm - - -

* Rain latest hour (hover to see other rain measurements)
** Current wind speed in m/s (hover to see current wind gust speed)